Location: Adelmannsfelden
(48.9533°N, 10.0036°E)
Time: 12:43:02
(UTC+00:00)

Daily predictions for brighter satellites

Satellite Brightness Start Highest point End
(mag) Time Altitude Azimuth Time Altitude Azimuth Time Altitude Azimuth
Cosmos 2208 Rocket 4.0 15:48:41 10° NNW 15:53:52 74° ENE 15:59:03 10° SSE
Cosmos 2098 Rocket 3.7 15:50:17 10° SSE 15:54:13 40° E 15:58:49 10° NNE
NOSS 2-2 (E) 2.8 15:51:50 10° SSW 15:55:10 63° SE 15:58:10 10° NE
Cosmos 724 4.3 15:51:14 10° NW 15:57:20 74° NE 16:03:14 10° SE
CZ-4C R/B 2.9 15:53:24 10° NW 16:00:07 67° NE 16:08:34 10° SE
Cosmos 2266 Rocket 4.3 15:55:46 10° N 16:01:37 43° ENE 16:07:20 10° SE
Cosmos 405 Rocket 2.5 16:00:07 10° NNW 16:03:22 75° W 16:06:34 10° S
CBERS-1 4.0 15:59:30 10° SSE 16:04:35 73° ENE 16:09:42 10° NNW
SMAP 3.4 16:01:40 10° SE 16:06:03 43° ENE 16:10:29 10° N
Cosmos 2297 Rocket 2.2 16:03:46 10° NNW 16:09:29 83° ENE 16:15:09 10° SSE
Landsat 7 4.2 16:06:37 10° SE 16:10:53 38° ENE 16:15:12 10° N
Cosmos 1626 Rocket 3.6 16:09:53 10° NNW 16:14:13 81° W 16:18:31 10° S
Meteor 1-28 Rocket 2.9 16:11:45 10° NNE 16:15:05 60° E 16:18:22 10° S
NOSS 2-2 (C) 4.1 16:13:54 10° WSW 16:16:44 30° NW 16:19:28 10° NNE
Cosmos 1315 Rocket 4.3 16:18:42 10° SW 16:22:13 34° WNW 16:25:46 10° N
BlueWalker 3 4.5 16:20:34 10° W 16:23:29 23° SW 16:26:23 10° S
Cosmos 1606 Rocket 4.3 16:19:36 10° SSE 16:23:31 32° E 16:27:28 10° NNE
ATLAS CENTAUR R/B 2.9 16:22:56 10° WNW 16:25:48 30° WSW 16:28:35 10° S
Thor Agena Rocket 3.5 16:21:48 10° SSE 16:27:01 83° ENE 16:32:11 10° NNW
Cosmos 1503 Rocket 4.1 16:22:48 10° S 16:27:56 59° ESE 16:33:03 10° NNE
Cosmos 2219 4.1 16:24:14 10° NNW 16:29:09 28° NE 16:34:04 10° ESE
CENTAUR R/B 3.5 16:24:05 10° W 16:29:46 40° NNW 16:36:51 10° NE
Cosmos 1484 Rocket 3.6 16:28:20 10° S 16:31:45 49° W 16:35:10 10° NNW
Cosmos 1544 Rocket 3.9 16:28:17 10° SSW 16:32:41 71° WNW 16:37:08 10° N
USA 290 3.1 16:30:03 10° NNW 16:33:15 54° WSW 16:36:26 10° S
SL-16 R/B 2.7 16:27:15 10° NNE 16:33:29 78° WNW 16:39:40 10° SSW
GEOS 3 Rocket 3.8 16:28:51 11° NE 16:33:59 63° SE 16:39:18 10° SSW
AQUARIUS 4.4 16:29:50 10° SE 16:34:01 45° ENE 16:38:15 10° N
Cosmos 1980 Rocket 3.3 16:30:33 10° SSE 16:34:55 24° ESE 16:37:57 15° ENE
Lacrosse 5 rocket 2.5 16:32:07 10° WNW 16:35:20 26° NNW 16:37:41 15° NE
Cosmos 1844 Rocket 4.3 16:32:46 10° N 16:35:54 15° NNE 16:37:19 14° NE
Cosmos 1354 Rocket 4.2 16:32:30 10° S 16:37:34 51° ESE 16:42:35 10° NNE
Meteor 1-25 Rocket 4.2 16:33:27 10° N 16:39:17 68° ENE 16:45:00 10° SSE
Meteor 1-5 Rocket 4.4 16:34:12 10° N 16:39:20 45° ENE 16:44:33 10° SE
Lacrosse 4 Rocket 3.7 16:37:30 10° WNW 16:40:00 16° NW 16:42:29 10° N
BREEZE M DEB (TANK) 2.7 16:38:01 10° SW 16:40:21 33° SSE 16:41:17 21° ESE
CORIOLIS 4.2 16:35:54 10° SSE 16:41:15 87° WSW 16:46:38 10° NNW
IRIDIUM 104 4.3 16:38:44 10° N 16:44:00 84° E 16:49:13 10° S
Cosmos 1777 Rocket 4.0 16:38:52 10° SSW 16:44:08 89° WNW 16:49:25 10° NNE
Cosmos 2263 Rocket 2.5 16:38:57 10° NNW 16:44:24 45° NE 16:49:50 10° SE
Cosmos 1726 Rocket 4.0 16:43:01 10° SSE 16:47:23 42° E 16:51:44 10° NNE
CZ-2D R/B 2.6 16:44:51 10° SSE 16:47:58 70° ENE 16:51:06 10° N
USA 238 DEB 4.2 16:44:41 10° S 16:50:04 34° ESE 16:53:47 19° ENE
USA 238 4.2 16:44:49 10° S 16:50:11 34° ESE 16:53:52 19° ENE
Okean 1-7 Rocket 3.5 16:46:52 10° N 16:51:16 90° E 16:55:38 10° S
IRIDIUM 114 4.4 16:47:53 10° N 16:53:08 82° W 16:58:21 10° S
Cosmos 1602 Rocket 4.1 16:48:50 10° NNW 16:53:10 60° W 16:57:26 10° S
ERS-1 4.4 16:48:32 10° SSE 16:53:31 75° ENE 16:58:30 10° NNW
Cosmos 1461 2.8 16:51:59 10° SW 16:55:52 72° NW 16:58:29 20° NNE
Cosmos 1933 3.1 16:53:39 10° S 16:57:28 77° E 17:01:19 10° NNE
USA 215 3.8 16:53:49 19° ENE 16:58:15 44° N 17:04:24 10° WNW
IRS-1C 4.2 16:53:54 10° SSE 16:59:14 84° WSW 17:04:36 10° NNW
YAOGAN 1 3.1 16:56:14 10° SE 17:00:02 33° ENE 17:03:52 10° N
Cosmos-2242 4.0 16:56:44 10° SE 17:00:13 25° E 17:00:13 25° E
Cosmos 2227 Rocket 2.2 16:55:14 10° NNW 17:00:55 90° WSW 17:06:35 10° SSE
SKYMED 2 4.1 16:58:49 22° NE 17:01:02 36° E 17:05:02 10° SSE
BREEZE-M DEB (TANK) 4.1 16:58:21 10° SSW 17:01:27 19° SSE 17:02:21 17° SE
NOSS 2-3 (E) 3.5 16:58:52 10° SSW 17:02:22 46° SE 17:03:39 32° ENE
NOSS 2-3 (D) 3.6 16:59:33 10° SSW 17:03:03 43° SE 17:04:13 32° ENE
SJ-12 3.8 17:00:20 10° S 17:04:06 77° WSW 17:07:54 10° NNW
Cosmos 2151 4.2 17:03:17 10° NNW 17:07:14 43° W 17:11:10 10° SSW
Cosmos 1655 Rocket 3.9 17:06:59 10° N 17:13:16 76° E 17:19:28 10° SSE
Meteor 2-10 4.1 17:09:09 10° N 17:14:25 55° ENE 17:19:51 10° SSE
Cosmos 1697 Rocket 2.7 17:09:18 10° SSW 17:14:54 88° WNW 17:19:15 18° NNE
Cosmos 990 Rocket 3.9 17:10:04 10° SSW 17:15:11 87° ESE 17:19:09 18° NNE
CZ-4 R/B 4.2 17:11:36 10° SSE 17:15:31 69° ENE 17:19:27 10° N
Cosmos 1867 4.4 17:10:32 10° NW 17:15:51 53° WSW 17:21:07 10° SSE
MOS 1 Rocket 3.6 17:11:55 10° S 17:16:50 78° WSW 17:22:04 10° NNW
Cosmos 1953 Rocket 3.4 17:12:36 10° N 17:17:03 73° ENE 17:21:30 10° SSE
Aureole 1 Rocket 3.6 17:13:17 10° S 17:17:32 45° ESE 17:19:38 30° NE
ARIANE 5 R/B 3.4 17:19:21 10° S 17:24:16 51° W 17:29:17 10° NNW
Cosmos 1825 Rocket 4.3 17:22:05 10° NNW 17:26:21 54° W 17:30:32 10° S
COSMOS 2455 4.3 17:26:49 10° SSE 17:29:38 19° SE 17:29:38 19° SE
NOAA 6 4.1 17:26:46 10° SE 17:31:41 50° ENE 17:36:37 10° N
Cosmos 1680 Rocket 4.2 17:27:44 10° N 17:31:46 33° NE 17:31:46 33° NE
USA 81 3.9 17:28:50 10° N 17:34:08 77° E 17:39:24 10° S
CZ-2D R/B 3.3 17:31:19 10° SSE 17:35:31 86° ENE 17:39:40 10° NNW
Radarsat Rocket 4.5 17:28:59 10° SSE 17:37:05 74° ENE 17:44:17 10° NNW
IRAS Rocket 4.1 17:32:36 10° SSE 17:38:01 68° ENE 17:43:29 10° NNW
Meteor 2-2 Rocket 4.2 17:33:52 10° S 17:39:23 58° E 17:41:51 32° NNE
Gbstr 26 Del rocket 2.4 17:35:30 10° WSW 17:39:29 87° SSE 17:39:37 82° E
NOSS 3-2 (C) 3.8 17:34:54 10° WSW 17:39:58 51° NW 17:43:16 25° NNE
SPOT 1/Viking Rocket 3.7 17:36:01 10° S 17:41:13 74° WSW 17:46:27 10° NNW
PSLV R/B 3.2 17:43:07 75° E 17:43:11 75° ENE 17:47:14 10° N
Cosmos 1076 Rocket 4.2 17:40:12 10° NNW 17:44:25 54° W 17:48:37 10° S
SL-19 R/B 4.1 17:41:24 10° SSE 17:46:48 81° ENE 17:52:31 10° NNW
Cosmos 2082 3.6 17:42:30 10° NNW 17:48:14 71° ENE 17:50:41 35° SE
CZ-4C R/B 4.3 17:41:48 10° NW 17:48:28 40° WSW 17:56:25 10° S
COSMO-SKYMED 1 2.5 17:49:13 61° SSE 17:49:13 61° SSE 17:52:45 10° S
Cosmos 2058 Rocket 3.0 17:45:21 10° S 17:49:49 87° E 17:50:44 57° NNE
Meteor 2-11 Rocket 4.3 17:54:24 10° N 18:00:34 67° ENE 18:06:40 10° SSE
SL-16 R/B 4.4 17:56:08 10° SSE 17:56:09 10° SSE 17:56:09 10° SSE
Nadezhda 2 Rocket 4.3 17:56:07 10° N 18:02:17 88° E 18:08:23 10° S
Meteor 1-26 Rocket 4.0 17:58:21 10° S 18:03:45 90° W 18:05:35 43° N
Cosmos 1553 Rocket 3.8 18:04:53 10° S 18:11:03 86° E 18:14:52 26° N
Resurs 1-3 4.4 18:07:57 10° S 18:12:08 50° W 18:16:20 10° NNW
Lacrosse 5 rocket 3.5 18:10:08 10° NW 18:11:16 16° NW 18:11:16 16° NW
Cosmos 2219 3.5 18:08:03 10° NNW 18:13:45 65° WSW 18:17:57 19° S
Cosmos 1980 Rocket 2.5 18:12:48 10° SW 18:18:25 64° WNW 18:19:44 50° N
USA 281 4.5 18:22:44 25° NNE 18:22:44 25° NNE 18:26:00 10° NNW
Cosmos 1844 Rocket 3.7 18:15:35 10° NNW 18:18:59 34° N 18:18:59 34° N
CENTAUR R/B 4.2 18:16:44 10° WNW 18:22:28 27° N 18:24:02 25° NNE
Cosmos 1745 Rocket 4.4 18:20:29 10° N 18:24:48 47° N 18:24:48 47° N
Cosmos 2263 Rocket 3.7 18:23:05 10° NW 18:28:12 35° WSW 18:33:17 10° S
Cosmos 1898 Rocket 3.8 18:25:20 10° SW 18:30:11 62° W 18:30:11 62° W
Cosmos 2369 3.8 18:25:36 10° SSW 18:30:42 72° SW 18:30:42 72° SW
YAOGAN 1 4.4 18:32:13 10° SSW 18:35:54 28° W 18:39:37 10° NW
USA 238 DEB 3.8 18:34:26 10° WSW 18:40:34 62° NW 18:41:14 59° NNW
USA 238 3.8 18:34:32 10° WSW 18:40:41 62° NW 18:41:20 59° NNW
USA 215 3.4 18:41:10 58° N 18:41:10 58° N 18:47:07 10° NW
